Regional Weather Roundup
Issued by NWS Goodland, KS

Home | Current Version | Previous Version | Graphics & Text | Print | Product List | Glossary On
Versions: 1 2 3 4 5 6 7 8 9 10 11 12 13 14 15 16 17 18 19 20 21 22 23 24 25 26 27 28 29 30 31 32 33 34 35 36 37 38 39 40 41 42 43 44 45 46 47 48 49 50
343
ASUS43 KGLD 301908
RWRGLD

GOODLAND FORECAST AREA HOURLY WEATHER ROUNDUP
NATIONAL WEATHER SERVICE GOODLAND KS
100 PM MDT FRI SEP 30 2016

...OFFICIAL OBSERVATIONS...

CITY           SKY/WX    TMP DP  RH WIND       PRES   REMARKS
GOODLAND KS    SUNNY     70  46  42 SE18G28   30.17F
HILL CITY KS   MOSUNNY   71  48  43 SE10      30.20F
IMPERIAL NEB   MOSUNNY   71  45  39 SE18      30.18F
MCCOOK NEB     MOSUNNY   70  47  43 SE13      30.20F
AKRON CO       MOSUNNY   70  41  34 E10       30.19F
BURLINGTON CO  CLOUDY    68  44  42 SE16      30.18F
LIMON CO       SUNNY     75  40  28 CALM      30.20F
$$

...UNOFFICIAL OBSERVATIONS...

CITY           SKY/WX    TMP DP  RH WIND       PRES   REMARKS
COLBY KS       SUNNY     73  48  40 SE16G26   30.19F
LENORA KS        N/A     68  32  26 MISG        N/A
NORTON KS      SUNNY     68  43  40 SE8G16    30.20F
SHARON SPRINGS   N/A     72  51  46 SE12G26     N/A
TRIBUNE KS     CLOUDY    75  48  38 SE15G23   30.17
KIT CARSON CO    N/A     69  46  43 MISG        N/A
$$




USA.gov is the U.S. government's official web portal to all federal, state and local government web resources and services.